Location: Newark
(46.2144°N, 13.6425°E)
Time: 00:52:14
(UTC+00:00)

OTV 5 (USA 277) - Visible Passes

Search period start: 22 August 2019 00:00
Search period end: 01 September 2019 00:00
Orbit: 305 x 329 km, 54.5° (Epoch: 20 August)

Date Brightness Start Highest point End Pass type
(mag) Time Alt. Az. Time Alt. Az. Time Alt. Az.
22 Aug ? 02:41:20 31° WNW 02:42:22 67° SW 02:44:58 10° SE visible
23 Aug ? 02:57:33 21° SSW 02:57:33 21° SSW 02:59:02 10° SSE visible
23 Aug ? 19:16:08 10° SSW 19:17:22 18° S 19:17:22 18° S visible
24 Aug ? 19:30:08 10° SW 19:32:47 60° SE 19:33:12 51° E visible
25 Aug ? 19:44:41 10° WSW 19:47:21 54° NNW 19:48:20 31° NNE visible
26 Aug ? 18:25:09 10° SSW 18:27:40 36° SE 18:30:12 10° ENE visible
26 Aug ? 19:59:38 10° W 20:02:02 27° NNW 20:02:59 22° NNE visible
27 Aug ? 18:39:27 10° WSW 18:42:10 84° NW 18:44:52 10° NE visible
27 Aug ? 20:14:48 10° WNW 20:16:48 18° NNW 20:17:20 18° N visible
28 Aug ? 18:54:14 10° W 18:56:47 37° NNW 18:59:20 10° NE visible
28 Aug ? 20:30:00 10° NW 20:31:29 15° NNW 20:31:29 15° NNW visible
29 Aug ? 19:09:18 10° WNW 19:11:30 22° NNW 19:13:44 10° NE visible
29 Aug ? 20:45:00 10° NW 20:45:30 12° NNW 20:45:30 12° NNW visible
30 Aug ? 19:24:30 10° NW 19:26:20 16° N 19:28:10 10° NNE visible
31 Aug ? 19:39:37 10° NW 19:41:13 14° N 19:42:28 11° NNE visible
